Location: Harwich
(41.7160°N, 69.9939°W)
Time: 02:53:21
(UTC+02:00)

AO-73 - Pass Details

Date: 24 September 2024
Orbit: 548 x 615 km, 97.7° (Epoch: 10 October)

Event Time Altitude Azimuth Distance (km) Brightness Sun altitude
Rises 10:16:24 0° 5° (N) 2,767 ? -25.1°
Reaches altitude 10° 10:18:37 10° 359° (N) 1,857 ? -24.7°
Enters shadow 10:20:26 24° 345° (NNW) 1,189 ? -24.4°
